| time (UTC) | temp F | wind direction | speed MPH | gust MPH | rain 1hr in | rain 24hr in | rain mn in | humidity % | barometer mb |
| 20260905222348 | 76 | 153 | 0.0 | 1.0 | 0.00 | 0.00 | 0.00 | 98 | 1004.8 |
| 20260905221411 | 76 | 164 | 0.0 | 0.0 | 0.00 | 0.00 | 0.00 | 98 | 1004.8 |
| 20260905220344 | 75 | 164 | 0.0 | 0.0 | 0.00 | 0.00 | 0.00 | 98 | 1004.8 |
| 20260905214127 | 75 | 182 | 0.0 | 1.0 | 0.00 | 0.00 | 0.00 | 98 | 1004.7 |
| 20260905213148 | 75 | 182 | 0.0 | 0.0 | 0.00 | 0.00 | 0.00 | 98 | 1004.7 |
| 20260905212122 | 75 | 182 | 0.0 | 0.0 | 0.00 | 0.00 | 0.00 | 98 | 1004.7 |
| 20260905211122 | 74 | 182 | 0.0 | 0.0 | 0.00 | 0.00 | 0.00 | 98 | 1004.3 |
| 20260905210140 | 74 | 182 | 0.0 | 0.0 | 0.00 | 0.00 | 0.00 | 97 | 1004.3 |
| 20260905203920 | 74 | 30 | 0.0 | 0.0 | 0.00 | 0.00 | 0.00 | 97 | 1004.3 |
| 20260905202859 | 73 | 30 | 0.0 | 0.0 | 0.00 | 0.00 | 0.00 | 97 | 1004.7 |
| 20260905201909 | 73 | 30 | 0.0 | 0.0 | 0.00 | 0.00 | 0.00 | 96 | 1004.7 |
| 20260905200922 | 73 | 30 | 0.0 | 1.0 | 0.00 | 0.00 | 0.00 | 96 | 1004.9 |
| 20260905195916 | 73 | 30 | 0.0 | 4.0 | 0.00 | 0.00 | 0.00 | 96 | 1004.9 |
| 20260905194859 | 73 | 30 | 0.0 | 1.0 | 0.00 | 0.00 | 0.00 | 94 | 1005.2 |
| 20260905193844 | 73 | 30 | 0.0 | 0.0 | 0.00 | 0.00 | 0.00 | 92 | 1005.8 |
| 20260905192843 | 73 | 0 | 1.0 | 4.0 | 0.00 | 0.00 | 0.00 | 91 | 1006.7 |
| 20260905191825 | 74 | 256 | 1.0 | 9.0 | 0.00 | 0.00 | 0.00 | 90 | 1006.7 |
| 20260905184503 | 93 | 230 | 0.0 | 0.0 | 0.00 | 0.00 | 0.00 | 64 | 1004.2 |
| 20260905183435 | 94 | 247 | 0.0 | 0.0 | 0.00 | 0.00 | 0.00 | 61 | 1004.2 |
| 20260905182413 | 94 | 181 | 0.0 | 4.0 | 0.00 | 0.00 | 0.00 | 58 | 1004.3 |
| 20260905181410 | 95 | 191 | 1.0 | 4.0 | 0.00 | 0.00 | 0.00 | 58 | 1004.9 |
| 20260905175244 | 95 | 63 | 0.0 | 3.0 | 0.00 | 0.00 | 0.00 | 56 | 1005.3 |
| 20260905172015 | 94 | 0 | 0.0 | 4.0 | 0.00 | 0.00 | 0.00 | 58 | 1005.8 |
| 20260905165906 | 94 | 126 | 0.0 | 5.0 | 0.00 | 0.00 | 0.00 | 60 | 1005.9 |
| 20260905164931 | 94 | 194 | 1.0 | 5.0 | 0.00 | 0.00 | 0.00 | 58 | 1005.9 |
| 20260905163925 | 95 | 138 | 0.0 | 4.0 | 0.00 | 0.00 | 0.00 | 57 | 1005.9 |
| 20260905162917 | 95 | 184 | 0.0 | 5.0 | 0.00 | 0.00 | 0.00 | 58 | 1005.9 |
| 20260905161908 | 94 | 179 | 0.0 | 5.0 | 0.00 | 0.00 | 0.00 | 58 | 1006.3 |
| 20260905160852 | 94 | 106 | 0.0 | 4.0 | 0.00 | 0.00 | 0.00 | 59 | 1006.4 |
| 20260905155852 | 93 | 11 | 0.0 | 4.0 | 0.00 | 0.00 | 0.00 | 60 | 1006.8 |
| 20260905153739 | 91 | 9 | 0.0 | 3.0 | 0.00 | 0.00 | 0.00 | 66 | 1007.0 |
| 20260905152721 | 90 | 142 | 1.0 | 4.0 | 0.00 | 0.00 | 0.00 | 67 | 1007.0 |
| 20260905151700 | 89 | 136 | 2.0 | 5.0 | 0.00 | 0.00 | 0.00 | 68 | 1007.0 |
| 20260905145527 | 89 | 127 | 0.0 | 4.0 | 0.00 | 0.00 | 0.00 | 71 | 1007.0 |
| 20260905144515 | 88 | 124 | 0.0 | 2.0 | 0.00 | 0.00 | 0.00 | 72 | 1007.0 |
| 20260905143523 | 87 | 56 | 0.0 | 3.0 | 0.00 | 0.00 | 0.00 | 73 | 1007.0 |
| 20260905142542 | 86 | 1 | 0.0 | 2.0 | 0.00 | 0.00 | 0.00 | 76 | 1006.8 |
| 20260905141530 | 85 | 200 | 0.0 | 5.0 | 0.00 | 0.00 | 0.00 | 77 | 1006.8 |
| 20260905140540 | 84 | 98 | 0.0 | 5.0 | 0.00 | 0.00 | 0.00 | 80 | 1006.7 |
| 20260905135529 | 82 | 190 | 0.0 | 4.0 | 0.00 | 0.00 | 0.00 | 83 | 1006.8 |
| 20260905131031 | 77 | 211 | 0.0 | 3.0 | 0.00 | 0.00 | 0.00 | 91 | 1006.6 |
| 20260905123743 | 75 | 177 | 0.0 | 1.0 | 0.00 | 0.00 | 0.00 | 95 | 1007.1 |
| 20260905122713 | 74 | 165 | 0.0 | 0.0 | 0.00 | 0.00 | 0.00 | 96 | 1006.9 |
| 20260905121647 | 74 | 205 | 0.0 | 2.0 | 0.00 | 0.00 | 0.00 | 96 | 1006.9 |
| 20260905120703 | 73 | 285 | 0.0 | 1.0 | 0.00 | 0.00 | 0.00 | 97 | 1006.8 |
| 20260905115727 | 73 | 282 | 0.0 | 0.0 | 0.00 | 0.00 | 0.00 | 97 | 1006.7 |
| 20260905113544 | 72 | 282 | 0.0 | 1.0 | 0.00 | 0.00 | 0.00 | 96 | 1006.6 |
| 20260905112550 | 72 | 323 | 0.0 | 0.0 | 0.00 | 0.00 | 0.00 | 96 | 1006.4 |
| 20260905111530 | 72 | 323 | 0.0 | 0.0 | 0.00 | 0.00 | 0.00 | 96 | 1006.4 |
| 20260905110536 | 72 | 323 | 0.0 | 0.0 | 0.00 | 0.00 | 0.00 | 96 | 1006.2 |
| 20260905105559 | 72 | 323 | 0.0 | 0.0 | 0.00 | 0.00 | 0.00 | 95 | 1006.0 |
| 20260905104617 | 72 | 324 | 0.0 | 0.0 | 0.00 | 0.00 | 0.00 | 95 | 1006.0 |
| 20260905103614 | 72 | 324 | 0.0 | 0.0 | 0.00 | 0.00 | 0.00 | 94 | 1006.1 |
| 20260905102631 | 72 | 324 | 0.0 | 0.0 | 0.00 | 0.00 | 0.00 | 94 | 1006.0 |
| 20260905101650 | 72 | 324 | 0.0 | 0.0 | 0.00 | 0.00 | 0.00 | 94 | 1006.0 |
| 20260905100639 | 72 | 324 | 0.0 | 0.0 | 0.00 | 0.00 | 0.00 | 94 | 1006.0 |
| 20260905094538 | 73 | 324 | 0.0 | 0.0 | 0.00 | 0.00 | 0.00 | 94 | 1006.0 |
| 20260905093543 | 73 | 324 | 0.0 | 0.0 | 0.00 | 0.00 | 0.00 | 94 | 1006.0 |
| 20260905092534 | 73 | 324 | 0.0 | 1.0 | 0.00 | 0.00 | 0.00 | 93 | 1006.0 |
| 20260905091509 | 73 | 302 | 0.0 | 0.0 | 0.00 | 0.00 | 0.00 | 93 | 1006.0 |
| 20260905085316 | 74 | 302 | 0.0 | 0.0 | 0.00 | 0.00 | 0.00 | 92 | 1006.4 |
| 20260905084335 | 74 | 302 | 0.0 | 0.0 | 0.00 | 0.00 | 0.00 | 91 | 1006.5 |
| 20260905083333 | 74 | 302 | 0.0 | 0.0 | 0.00 | 0.00 | 0.00 | 91 | 1006.5 |
| 20260905082317 | 74 | 302 | 0.0 | 0.0 | 0.00 | 0.00 | 0.00 | 90 | 1006.4 |
| 20260905081251 | 75 | 302 | 0.0 | 0.0 | 0.00 | 0.00 | 0.00 | 90 | 1006.7 |
| 20260905080312 | 75 | 302 | 0.0 | 0.0 | 0.00 | 0.00 | 0.00 | 90 | 1006.7 |
| 20260905075238 | 75 | 268 | 0.0 | 0.0 | 0.00 | 0.00 | 0.00 | 89 | 1006.5 |
| 20260905074231 | 75 | 178 | 0.0 | 1.0 | 0.00 | 0.00 | 0.00 | 89 | 1006.8 |
| 20260905073243 | 75 | 188 | 0.0 | 0.0 | 0.00 | 0.00 | 0.00 | 89 | 1006.8 |
| 20260905072252 | 75 | 188 | 0.0 | 0.0 | 0.00 | 0.00 | 0.00 | 89 | 1006.9 |
| 20260905070108 | 75 | 185 | 0.0 | 0.0 | 0.00 | 0.00 | 0.00 | 88 | 1006.9 |
| 20260905065100 | 75 | 181 | 0.0 | 0.0 | 0.00 | 0.00 | 0.00 | 88 | 1007.3 |
| 20260905062847 | 75 | 164 | 0.0 | 0.0 | 0.00 | 0.00 | 0.00 | 88 | 1007.5 |
| 20260905061816 | 75 | 165 | 0.0 | 0.0 | 0.00 | 0.00 | 0.00 | 89 | 1007.5 |
| 20260905060817 | 75 | 140 | 0.0 | 1.0 | 0.00 | 0.00 | 0.00 | 88 | 1007.9 |
| 20260905055753 | 75 | 46 | 0.0 | 0.0 | 0.00 | 0.00 | 0.00 | 89 | 1007.9 |
| 20260905053642 | 76 | 90 | 0.0 | 0.0 | 0.00 | 0.00 | 0.00 | 89 | 1008.0 |
| 20260905052708 | 76 | 90 | 0.0 | 0.0 | 0.00 | 0.00 | 0.00 | 89 | 1008.4 |
| 20260905051715 | 76 | 90 | 0.0 | 0.0 | 0.00 | 0.00 | 0.00 | 89 | 1008.4 |
| 20260905045555 | 77 | 88 | 0.0 | 0.0 | 0.00 | 0.00 | 0.00 | 89 | 1008.9 |
| 20260905044546 | 77 | 305 | 0.0 | 0.0 | 0.00 | 0.00 | 0.00 | 88 | 1008.9 |
| 20260905043546 | 77 | 123 | 0.0 | 3.0 | 0.00 | 0.00 | 0.00 | 88 | 1009.0 |
| 20260905042552 | 77 | 98 | 0.0 | 1.0 | 0.00 | 0.00 | 0.00 | 88 | 1009.0 |
| 20260905040424 | 77 | 106 | 0.0 | 1.0 | 0.00 | 0.00 | 0.00 | 89 | 1009.0 |
| 20260905034248 | 77 | 198 | 0.0 | 1.0 | 0.00 | 0.00 | 0.00 | 89 | 1009.1 |
| 20260905033223 | 76 | 110 | 0.0 | 2.0 | 0.00 | 0.00 | 0.00 | 89 | 1009.1 |
| 20260905032236 | 76 | 98 | 0.0 | 4.0 | 0.00 | 0.00 | 0.00 | 89 | 1009.1 |
| 20260905031208 | 76 | 226 | 0.0 | 4.0 | 0.00 | 0.00 | 0.00 | 88 | 1009.3 |
| 20260905030143 | 76 | 86 | 0.0 | 2.0 | 0.00 | 0.00 | 0.00 | 88 | 1009.3 |
| 20260905024045 | 77 | 45 | 0.0 | 0.0 | 0.00 | 0.00 | 0.00 | 88 | 1009.2 |
| 20260905023100 | 77 | 23 | 0.0 | 4.0 | 0.00 | 0.00 | 0.00 | 87 | 1009.2 |
| 20260905022104 | 77 | 359 | 1.0 | 4.0 | 0.00 | 0.00 | 0.00 | 87 | 1009.5 |
| 20260905021116 | 77 | 15 | 0.0 | 3.0 | 0.00 | 0.00 | 0.00 | 87 | 1009.1 |
| 20260905020121 | 78 | 16 | 1.0 | 3.0 | 0.00 | 0.00 | 0.00 | 86 | 1009.1 |
| 20260905015144 | 78 | 13 | 1.0 | 4.0 | 0.00 | 0.00 | 0.00 | 85 | 1009.2 |
| 20260905014143 | 79 | 27 | 1.0 | 4.0 | 0.00 | 0.00 | 0.00 | 83 | 1009.5 |
| 20260905013135 | 80 | 4 | 2.0 | 4.0 | 0.00 | 0.00 | 0.00 | 82 | 1009.5 |
| 20260905012149 | 81 | 4 | 3.0 | 6.0 | 0.00 | 0.00 | 0.00 | 79 | 1009.6 |
| 20260905011127 | 84 | 3 | 2.0 | 6.0 | 0.00 | 0.00 | 0.00 | 74 | 1009.2 |
| 20260905010134 | 85 | 30 | 0.0 | 3.0 | 0.00 | 0.00 | 0.00 | 73 | 1009.2 |
| 20260905005107 | 85 | 1 | 0.0 | 5.0 | 0.00 | 0.00 | 0.00 | 74 | 1008.0 |
| 20260905004128 | 86 | 37 | 1.0 | 5.0 | 0.00 | 0.00 | 0.00 | 78 | 1006.7 |
| 20260905003134 | 86 | 205 | 0.0 | 3.0 | 0.00 | 0.00 | 0.00 | 75 | 1006.7 |
| 20260905002138 | 86 | 119 | 0.0 | 3.0 | 0.00 | 0.00 | 0.00 | 76 | 1007.0 |
| 20260905001132 | 85 | 190 | 0.0 | 3.0 | 0.00 | 0.00 | 0.00 | 79 | 1006.5 |
| 20260905000112 | 85 | 100 | 0.0 | 1.0 | 0.00 | 0.00 | 0.00 | 77 | 1006.5 |
| 20260904235116 | 85 | 239 | 0.0 | 2.0 | 0.00 | 0.00 | 0.00 | 78 | 1006.6 |
| 20260904234050 | 86 | 345 | 0.0 | 0.0 | 0.00 | 0.00 | 0.00 | 78 | 1006.9 |
| 20260904233017 | 86 | 345 | 0.0 | 1.0 | 0.00 | 0.00 | 0.00 | 77 | 1006.9 |
| 20260904231954 | 87 | 252 | 0.0 | 0.0 | 0.00 | 0.00 | 0.00 | 77 | 1007.2 |
| 20260904230946 | 88 | 252 | 0.0 | 0.0 | 0.00 | 0.00 | 0.00 | 76 | 1007.0 |
| 20260904225923 | 88 | 252 | 0.0 | 0.0 | 0.00 | 0.00 | 0.00 | 74 | 1007.0 |
| 20260904224937 | 89 | 252 | 0.0 | 0.0 | 0.00 | 0.00 | 0.00 | 73 | 1006.7 |
| 20260904223939 | 90 | 263 | 0.0 | 0.0 | 0.00 | 0.00 | 0.00 | 73 | 1006.5 |